Weather History for KMIC - November, 2011

Change the Weather History Date:

Wednesday, November 30, 2011

  Actual Average Record
Temperature  
Mean Temperature 30 °F -  
Max Temperature 39 °F 35 °F 44 °F (1998)
Min Temperature 21 °F 21 °F 0 °F (1991)
Degree Days  
Heating Degree Days 35    
Moisture  
Dew Point 18 °F    
Average Humidity 61    
Maximum Humidity 88    
Minimum Humidity 39    
Precipitation  
Precipitation 0.02 in - - ()
Sea Level Pressure  
Sea Level Pressure 30.00 in    
Wind  
Wind Speed 5 mph (ESE)    
Max Wind Speed 10 mph    
Max Gust Speed -    
Visibility 8 miles    
Events Snow    
Averages and records for this station are not official NWS values.
T = Trace of Precipitation, MM = Missing Value Source: NWS Daily Summary

Daily Weather History Graph

Daily Weather History Graph

Search for Another Location

Airport or City:

Trip Planner

Search our weather history database for the weather conditions in past years. The results will help you decide how hot, cold, wet, or windy it might be!

Date:

Astronomy

Nov. 30, 2011 Rise Set
Actual Time 7:30 AM CST 4:33 PM CST
Civil Twilight 6:57 AM CST 5:06 PM CST
Nautical Twilight 6:20 AM CST 5:43 PM CST
Astronomical Twilight 5:45 AM CST 6:18 PM CST
Moon 11:40 AM CST (11/30) 10:40 PM CST (11/30)
Length of Visible Light 10h 09m
Length of Day
9h 03m
Waxing Crescent, 34% of the Moon is Illuminated
Nov 30
Waxing Crescent
Dec 2
First Quarter
Dec 10
Full
Dec 17
Last Quarter
Dec 24
New

Hourly Weather History & Observations

Time (CST) Temp. Windchill Dew Point Humidity Pressure Visibility Wind Dir Wind Speed Gust Speed Precip Events Conditions
12:53 AM 21.0 °F 16.2 °F 12.9 °F 71% 30.08 in 10.0 mi SSE 3.5 mph - N/A   Clear
1:53 AM 21.9 °F 15.7 °F 12.0 °F 66% 30.06 in 10.0 mi South 4.6 mph - N/A   Clear
2:53 AM 24.1 °F 18.2 °F 12.0 °F 60% 30.05 in 10.0 mi SSE 4.6 mph - N/A   Clear
3:53 AM 23.0 °F 17.0 °F 10.9 °F 60% 30.03 in 10.0 mi South 4.6 mph - N/A   Clear
4:53 AM 23.0 °F 15.8 °F 10.9 °F 60% 30.01 in 10.0 mi SSE 5.8 mph - N/A   Clear
5:53 AM 24.1 °F 16.0 °F 10.9 °F 57% 29.98 in 10.0 mi South 6.9 mph - N/A   Clear
6:53 AM 25.0 °F 19.3 °F 9.0 °F 51% 29.97 in 10.0 mi SE 4.6 mph - N/A   Clear
7:53 AM 27.0 °F 21.6 °F 10.9 °F 51% 29.96 in 10.0 mi South 4.6 mph - N/A   Clear
8:53 AM 28.9 °F 21.9 °F 12.0 °F 49% 29.97 in 10.0 mi South 6.9 mph - N/A   Clear
9:53 AM 34.0 °F 28.0 °F 12.9 °F 42% 29.95 in 10.0 mi South 6.9 mph - N/A   Partly Cloudy
10:53 AM 36.0 °F 30.3 °F 14.0 °F 41% 29.96 in 10.0 mi South 6.9 mph - N/A   Overcast
11:53 AM 37.0 °F 32.4 °F 16.0 °F 42% 29.94 in 10.0 mi SSW 5.8 mph - N/A   Overcast
12:53 PM 37.9 °F 34.4 °F 16.0 °F 41% 29.91 in 10.0 mi Variable 4.6 mph - N/A   Mostly Cloudy
1:53 PM 39.0 °F 34.8 °F 16.0 °F 39% 29.90 in 10.0 mi South 5.8 mph - N/A   Scattered Clouds
2:53 PM 39.0 °F 36.8 °F 17.1 °F 41% 29.92 in 10.0 mi SW 3.5 mph - N/A   Overcast
3:53 PM 39.0 °F 35.7 °F 17.1 °F 41% 29.91 in 10.0 mi South 4.6 mph - N/A   Overcast
4:53 PM 37.9 °F 35.5 °F 18.0 °F 45% 29.94 in 10.0 mi NNE 3.5 mph - N/A   Overcast
5:53 PM 37.9 °F 32.7 °F 19.0 °F 47% 29.97 in 10.0 mi North 6.9 mph - N/A   Overcast
6:53 PM 37.0 °F 32.4 °F 19.0 °F 48% 30.00 in 10.0 mi North 5.8 mph - N/A   Overcast
7:53 PM 33.1 °F 24.9 °F 25.0 °F 72% 30.01 in 8.0 mi North 10.4 mph - 0.00 in   Overcast
8:53 PM 32.0 °F 28.7 °F 27.0 °F 82% 30.04 in 8.0 mi NNE 3.5 mph - 0.00 in Snow Light Snow
9:53 PM 32.0 °F 26.4 °F 25.0 °F 75% 30.06 in 4.0 mi North 5.8 mph - 0.00 in Snow Light Snow
10:04 PM 30.2 °F 21.9 °F 24.8 °F 80% 30.04 in 2.5 mi North 9.2 mph - 0.00 in Snow Light Snow
10:23 PM 30.2 °F 21.9 °F 26.6 °F 86% 30.05 in 1.5 mi North 9.2 mph - 0.01 in Snow Light Snow
10:37 PM 30.2 °F 24.3 °F 26.6 °F 86% 30.06 in 1.8 mi North 5.8 mph - 0.01 in Snow Light Snow
10:53 PM 30.0 °F 26.5 °F 27.0 °F 88% 30.09 in 1.5 mi North 3.5 mph - 0.01 in Snow Light Snow
11:22 PM 30.2 °F 25.4 °F 26.6 °F 86% 30.07 in 2.0 mi North 4.6 mph - 0.01 in Snow Light Snow
11:41 PM 30.2 °F 24.3 °F 26.6 °F 86% 30.08 in 3.0 mi North 5.8 mph - 0.01 in Snow Light Snow
11:53 PM 30.0 °F 25.2 °F 27.0 °F 88% 30.12 in 3.0 mi North 4.6 mph - 0.01 in Snow Light Snow